SKW3983 KPHX-KELP

Flight info

Callsign SKW3983
Flight time 0h 56m
Altitude 35000
Route ECLPS1 PHASE TEEES MOLLY5
Aircraft CRJ9/M-SDFGIRWY/S

Departure

Time 2026-04-25 17:15
Airport Phoenix Sky Harbor International Airport (KPHX)

Arrival

Time 2026-04-25 18:11
Airport El Paso International Airport (KELP)
Time Latitude Longitude Altitude Speed Heading
2026-04-25 17:00 33.43356 -111.99984 1120 ft 0 kts 40°
2026-04-25 17:06 33.43353 -111.99987 1132 ft 2 kts 40°
2026-04-25 17:06 33.43338 -112.00002 1133 ft 3 kts 40°
2026-04-25 17:06 33.43323 -112.00016 1133 ft 3 kts 32°
2026-04-25 17:07 33.43305 -112.00025 1130 ft 3 kts
2026-04-25 17:07 33.43286 -112.00024 1131 ft 3 kts 345°
2026-04-25 17:07 33.43272 -112.00018 1131 ft 1 kts 339°
2026-04-25 17:07 33.43268 -112.00016 1131 ft 0 kts 339°
2026-04-25 17:11 33.43276 -112.00022 1141 ft 4 kts 321°
2026-04-25 17:11 33.43283 -112.00063 1135 ft 11 kts 271°
2026-04-25 17:11 33.43283 -112.00223 1132 ft 27 kts 270°
2026-04-25 17:11 33.43285 -112.00485 1133 ft 32 kts 272°
2026-04-25 17:12 33.43286 -112.00746 1133 ft 31 kts 269°
2026-04-25 17:12 33.43288 -112.00998 1126 ft 30 kts 270°
2026-04-25 17:12 33.43288 -112.01242 1120 ft 29 kts 270°
2026-04-25 17:12 33.43288 -112.01477 1120 ft 28 kts 270°
2026-04-25 17:13 33.43289 -112.01705 1120 ft 27 kts 270°
2026-04-25 17:13 33.43289 -112.01854 1120 ft 27 kts 270°
2026-04-25 17:13 33.43289 -112.02150 1124 ft 26 kts 270°
2026-04-25 17:13 33.43289 -112.02370 1120 ft 26 kts 270°
2026-04-25 17:14 33.43289 -112.02585 1120 ft 26 kts 270°
2026-04-25 17:14 33.43199 -112.02713 1123 ft 22 kts 178°
2026-04-25 17:14 33.43101 -112.02626 1116 ft 16 kts 86°
2026-04-25 17:14 33.43106 -112.02444 1124 ft 45 kts 90°
2026-04-25 17:15 33.43104 -112.01751 1126 ft 120 kts 90°
2026-04-25 17:15 33.43102 -112.00494 1136 ft 179 kts 91°
2026-04-25 17:15 33.43127 -111.98931 1737 ft 187 kts 85°
2026-04-25 17:15 33.43740 -111.97519 2320 ft 199 kts 46°
2026-04-25 17:16 33.44535 -111.96182 3005 ft 202 kts 77°
2026-04-25 17:16 33.44526 -111.94428 3403 ft 221 kts 101°
2026-04-25 17:16 33.44247 -111.92588 4380 ft 226 kts 104°
2026-04-25 17:16 33.43895 -111.90680 5217 ft 245 kts 105°
2026-04-25 17:17 33.43493 -111.88633 6022 ft 260 kts 111°
2026-04-25 17:17 33.42457 -111.86826 6596 ft 274 kts 147°
2026-04-25 17:17 33.40810 -111.85570 7339 ft 288 kts 150°
2026-04-25 17:17 33.39209 -111.84043 8084 ft 307 kts 140°
2026-04-25 17:18 33.37701 -111.82143 8916 ft 321 kts 136°
2026-04-25 17:18 33.36178 -111.80153 9893 ft 327 kts 137°
2026-04-25 17:18 33.34593 -111.78164 10754 ft 334 kts 139°
2026-04-25 17:18 33.32934 -111.76180 11594 ft 341 kts 140°
2026-04-25 17:19 33.31223 -111.74173 12433 ft 348 kts 141°
2026-04-25 17:19 33.29487 -111.72117 13273 ft 355 kts 140°
2026-04-25 17:19 33.27735 -111.69987 14059 ft 361 kts 140°
2026-04-25 17:19 33.25960 -111.67843 14857 ft 365 kts 140°
2026-04-25 17:20 33.24161 -111.65674 15632 ft 370 kts 140°
2026-04-25 17:20 33.22341 -111.63476 16395 ft 374 kts 141°
2026-04-25 17:20 33.20499 -111.61260 17121 ft 379 kts 141°
2026-04-25 17:20 33.18633 -111.59016 17840 ft 383 kts 141°
2026-04-25 17:21 33.16747 -111.56745 18496 ft 387 kts 141°
2026-04-25 17:21 33.14840 -111.54449 19044 ft 391 kts 141°
2026-04-25 17:21 33.12908 -111.52134 19626 ft 396 kts 141°
2026-04-25 17:21 33.10953 -111.49789 20198 ft 401 kts 141°
2026-04-25 17:22 33.09002 -111.47449 20731 ft 405 kts 141°
2026-04-25 17:22 33.07657 -111.45832 21085 ft 408 kts 141°
2026-04-25 17:22 33.05239 -111.42305 21764 ft 423 kts 129°
2026-04-25 17:22 33.03663 -111.39302 22292 ft 429 kts 126°
2026-04-25 17:23 33.02122 -111.36244 22778 ft 433 kts 127°
2026-04-25 17:23 33.00539 -111.33170 23266 ft 437 kts 128°
2026-04-25 17:23 32.98883 -111.30121 23700 ft 440 kts 129°
2026-04-25 17:23 32.97192 -111.27063 24106 ft 444 kts 129°
2026-04-25 17:24 32.95493 -111.23977 24513 ft 447 kts 129°
2026-04-25 17:24 32.93783 -111.20862 24897 ft 451 kts 129°
2026-04-25 17:24 32.92061 -111.17733 25279 ft 454 kts 129°
2026-04-25 17:24 32.90319 -111.14569 25646 ft 458 kts 129°
2026-04-25 17:25 32.88563 -111.11391 25943 ft 462 kts 129°
2026-04-25 17:25 32.86791 -111.08184 26256 ft 466 kts 130°
2026-04-25 17:25 32.84995 -111.04944 26591 ft 470 kts 130°
2026-04-25 17:25 32.83196 -111.01696 26916 ft 473 kts 130°
2026-04-25 17:26 32.81385 -110.98416 27244 ft 476 kts 130°
2026-04-25 17:26 32.79560 -110.95117 27578 ft 479 kts 130°
2026-04-25 17:26 32.77721 -110.91802 27916 ft 482 kts 130°
2026-04-25 17:26 32.75869 -110.88469 28208 ft 485 kts 130°
2026-04-25 17:27 32.74001 -110.85111 28489 ft 488 kts 130°
2026-04-25 17:27 32.72134 -110.81745 28784 ft 490 kts 130°
2026-04-25 17:27 32.70245 -110.78347 29042 ft 493 kts 130°
2026-04-25 17:27 32.69606 -110.77201 29109 ft 495 kts 130°
2026-04-25 17:28 32.66425 -110.71503 29500 ft 500 kts 131°
2026-04-25 17:28 32.64578 -110.67991 29744 ft 510 kts 122°
2026-04-25 17:28 32.63244 -110.64047 29985 ft 521 kts 111°
2026-04-25 17:28 32.62357 -110.59847 30177 ft 526 kts 105°
2026-04-25 17:29 32.61622 -110.55596 30397 ft 528 kts 105°
2026-04-25 17:29 32.60834 -110.51335 30607 ft 529 kts 108°
2026-04-25 17:29 32.59897 -110.47102 30816 ft 530 kts 110°
2026-04-25 17:29 32.58894 -110.42895 31067 ft 531 kts 110°
2026-04-25 17:30 32.57901 -110.38682 31304 ft 532 kts 109°
2026-04-25 17:30 32.56971 -110.34485 31525 ft 534 kts 109°
2026-04-25 17:30 32.56025 -110.30212 31726 ft 537 kts 109°
2026-04-25 17:30 32.55064 -110.25933 31967 ft 538 kts 109°
2026-04-25 17:31 32.54099 -110.21644 32075 ft 541 kts 109°
2026-04-25 17:31 32.53132 -110.17327 32071 ft 542 kts 109°
2026-04-25 17:31 32.51205 -110.08731 32070 ft 538 kts 109°
2026-04-25 17:32 32.49274 -110.00168 31915 ft 537 kts 109°
2026-04-25 17:32 32.47349 -109.91646 31850 ft 535 kts 109°
2026-04-25 17:33 32.45409 -109.83153 31843 ft 532 kts 110°
2026-04-25 17:33 32.43508 -109.74699 31839 ft 531 kts 106°
2026-04-25 17:34 32.42451 -109.66081 31827 ft 532 kts 98°
2026-04-25 17:34 32.41536 -109.57422 31828 ft 529 kts 102°
2026-04-25 17:35 32.40342 -109.48852 31790 ft 527 kts 102°
2026-04-25 17:35 32.39231 -109.40327 31815 ft 521 kts 101°
2026-04-25 17:36 32.38145 -109.31910 31815 ft 514 kts 101°
2026-04-25 17:36 32.37070 -109.23594 31817 ft 508 kts 102°
2026-04-25 17:37 32.35990 -109.15374 31822 ft 503 kts 101°
2026-04-25 17:37 32.35290 -109.07166 31823 ft 499 kts 97°
2026-04-25 17:38 32.34781 -109.01732 31803 ft 495 kts 100°
2026-04-25 17:38 32.33653 -108.91048 31809 ft 489 kts 99°
2026-04-25 17:39 32.32847 -108.82952 31835 ft 503 kts 99°
2026-04-25 17:39 32.32013 -108.74611 32061 ft 519 kts 99°
2026-04-25 17:40 32.31148 -108.66020 32038 ft 533 kts 99°
2026-04-25 17:40 32.30256 -108.57220 32017 ft 543 kts 99°
2026-04-25 17:41 32.29804 -108.52770 31809 ft 550 kts 99°
2026-04-25 17:41 32.29341 -108.48269 31400 ft 553 kts 99°
2026-04-25 17:41 32.28881 -108.43754 31030 ft 556 kts 99°
2026-04-25 17:41 32.28409 -108.39197 30659 ft 559 kts 98°
2026-04-25 17:42 32.27942 -108.34638 30293 ft 561 kts 98°
2026-04-25 17:42 32.27464 -108.30073 29924 ft 558 kts 98°
2026-04-25 17:42 32.26993 -108.25530 29504 ft 554 kts 98°
2026-04-25 17:42 32.26526 -108.21045 29060 ft 545 kts 98°
2026-04-25 17:43 32.26042 -108.16634 28493 ft 538 kts 99°
2026-04-25 17:43 32.25548 -108.12293 27941 ft 531 kts 99°
2026-04-25 17:43 32.25054 -108.07993 27398 ft 525 kts 99°
2026-04-25 17:43 32.24568 -108.03738 26872 ft 520 kts 99°
2026-04-25 17:44 32.24249 -108.00940 26517 ft 517 kts 99°
2026-04-25 17:44 32.23763 -107.96755 26004 ft 512 kts 99°
2026-04-25 17:44 32.23286 -107.92607 25504 ft 507 kts 99°
2026-04-25 17:44 32.22812 -107.88496 25008 ft 503 kts 99°
2026-04-25 17:45 32.22335 -107.84418 24525 ft 499 kts 99°
2026-04-25 17:45 32.22023 -107.81732 24209 ft 497 kts 99°
2026-04-25 17:45 32.21401 -107.76354 23786 ft 492 kts 99°
2026-04-25 17:45 32.20942 -107.72382 23268 ft 486 kts 99°
2026-04-25 17:46 32.20489 -107.68441 22709 ft 480 kts 99°
2026-04-25 17:46 32.20035 -107.64557 22167 ft 474 kts 99°
2026-04-25 17:46 32.19590 -107.60719 21456 ft 470 kts 99°
2026-04-25 17:46 32.19148 -107.56929 20683 ft 464 kts 100°
2026-04-25 17:47 32.18698 -107.53165 19924 ft 460 kts 99°
2026-04-25 17:47 32.18265 -107.49445 19196 ft 455 kts 99°
2026-04-25 17:47 32.17843 -107.45804 18432 ft 452 kts 99°
2026-04-25 17:47 32.17411 -107.42123 16998 ft 461 kts 99°
2026-04-25 17:48 32.16552 -107.34870 16241 ft 429 kts 99°
2026-04-25 17:48 32.16147 -107.31441 15958 ft 414 kts 99°
2026-04-25 17:48 32.15755 -107.28132 15718 ft 401 kts 99°
2026-04-25 17:49 32.15365 -107.24920 15478 ft 390 kts 100°
2026-04-25 17:49 32.14991 -107.21790 15241 ft 381 kts 100°
2026-04-25 17:49 32.14624 -107.18725 15004 ft 376 kts 100°
2026-04-25 17:49 32.14254 -107.15667 14784 ft 377 kts 100°
2026-04-25 17:50 32.13888 -107.12606 14570 ft 377 kts 99°
2026-04-25 17:50 32.13518 -107.09548 14359 ft 376 kts 100°
2026-04-25 17:50 32.13149 -107.06493 14145 ft 376 kts 100°
2026-04-25 17:50 32.12784 -107.03451 13919 ft 371 kts 100°
2026-04-25 17:51 32.12423 -107.00473 13672 ft 363 kts 99°
2026-04-25 17:51 32.12064 -106.97559 13400 ft 355 kts 102°
2026-04-25 17:51 32.11529 -106.94750 13123 ft 347 kts 108°
2026-04-25 17:51 32.10886 -106.92063 12854 ft 341 kts 109°
2026-04-25 17:52 32.10227 -106.89366 12582 ft 336 kts 109°
2026-04-25 17:52 32.09803 -106.87618 12409 ft 333 kts 108°
2026-04-25 17:52 32.09012 -106.84117 12029 ft 327 kts 107°
2026-04-25 17:52 32.08442 -106.81575 11786 ft 323 kts 107°
2026-04-25 17:53 32.07869 -106.79024 11557 ft 319 kts 107°
2026-04-25 17:53 32.07304 -106.76506 11315 ft 316 kts 107°
2026-04-25 17:53 32.06724 -106.74022 11079 ft 313 kts 108°
2026-04-25 17:53 32.06137 -106.71567 10847 ft 310 kts 109°
2026-04-25 17:54 32.05541 -106.69140 10621 ft 307 kts 109°
2026-04-25 17:54 32.05220 -106.66672 10320 ft 308 kts 85°
2026-04-25 17:54 32.05549 -106.64141 9727 ft 318 kts 79°
2026-04-25 17:54 32.05957 -106.61552 9121 ft 324 kts 78°
2026-04-25 17:55 32.06401 -106.58924 8517 ft 329 kts 78°
2026-04-25 17:55 32.06865 -106.56287 7921 ft 328 kts 78°
2026-04-25 17:55 32.07339 -106.53665 7329 ft 326 kts 77°
2026-04-25 17:55 32.07821 -106.51066 6866 ft 320 kts 78°
2026-04-25 17:56 32.08303 -106.48566 6633 ft 306 kts 77°
2026-04-25 17:56 32.08759 -106.46160 6381 ft 295 kts 77°
2026-04-25 17:56 32.09190 -106.43864 6109 ft 286 kts 77°
2026-04-25 17:56 32.09611 -106.41605 5895 ft 276 kts 77°
2026-04-25 17:57 32.10020 -106.39453 5808 ft 262 kts 77°
2026-04-25 17:57 32.10415 -106.37404 5787 ft 252 kts 77°
2026-04-25 17:57 32.10804 -106.35413 5772 ft 247 kts 77°
2026-04-25 17:57 32.11058 -106.34086 5746 ft 247 kts 77°
2026-04-25 17:58 32.11560 -106.31418 5751 ft 256 kts 77°
2026-04-25 17:58 32.11925 -106.29342 5764 ft 261 kts 77°
2026-04-25 17:58 32.12596 -106.27350 5757 ft 264 kts 54°
2026-04-25 17:58 32.13611 -106.25525 5763 ft 268 kts 55°
2026-04-25 17:59 32.14647 -106.23677 5760 ft 271 kts 54°
2026-04-25 17:59 32.15699 -106.21811 5741 ft 274 kts 54°
2026-04-25 17:59 32.16772 -106.19941 5713 ft 275 kts 54°
2026-04-25 17:59 32.17840 -106.18078 5691 ft 273 kts 54°
2026-04-25 18:00 32.18899 -106.16228 5706 ft 272 kts 54°
2026-04-25 18:00 32.19958 -106.14380 5701 ft 271 kts 55°
2026-04-25 18:00 32.20935 -106.12474 5693 ft 271 kts 59°
2026-04-25 18:00 32.21815 -106.10501 5687 ft 272 kts 62°
2026-04-25 18:01 32.22629 -106.08482 5693 ft 273 kts 66°
2026-04-25 18:01 32.22938 -106.06314 5662 ft 268 kts 100°
2026-04-25 18:01 32.22223 -106.04372 5681 ft 255 kts 136°
2026-04-25 18:01 32.20794 -106.03300 5699 ft 240 kts 174°
2026-04-25 18:02 32.19194 -106.03462 5724 ft 232 kts 211°
2026-04-25 18:02 32.18094 -106.04783 5760 ft 230 kts 249°
2026-04-25 18:02 32.17599 -106.06551 5820 ft 228 kts 254°
2026-04-25 18:02 32.17089 -106.08359 5803 ft 235 kts 250°
2026-04-25 18:03 32.16399 -106.10106 5869 ft 231 kts 242°
2026-04-25 18:03 32.15465 -106.11653 5815 ft 232 kts 231°
2026-04-25 18:03 32.14304 -106.12945 5765 ft 233 kts 221°
2026-04-25 18:03 32.12947 -106.13997 5729 ft 234 kts 211°
2026-04-25 18:04 32.11488 -106.14832 5731 ft 232 kts 208°
2026-04-25 18:04 32.10014 -106.15596 5738 ft 231 kts 207°
2026-04-25 18:04 32.08532 -106.16348 5766 ft 233 kts 207°
2026-04-25 18:04 32.07048 -106.17124 5784 ft 234 kts 209°
2026-04-25 18:05 32.05575 -106.17939 5795 ft 234 kts 209°
2026-04-25 18:05 32.04159 -106.18720 5825 ft 219 kts 209°
2026-04-25 18:05 32.02808 -106.19485 5806 ft 212 kts 210°
2026-04-25 18:05 32.01485 -106.20208 5817 ft 208 kts 210°
2026-04-25 18:06 32.00182 -106.20927 5827 ft 204 kts 209°
2026-04-25 18:06 31.98903 -106.21644 5824 ft 203 kts 210°
2026-04-25 18:06 31.97632 -106.22351 5812 ft 201 kts 210°
2026-04-25 18:06 31.96375 -106.23052 5810 ft 199 kts 210°
2026-04-25 18:07 31.95130 -106.23728 5828 ft 195 kts 208°
2026-04-25 18:07 31.93907 -106.24407 5823 ft 194 kts 209°
2026-04-25 18:07 31.92687 -106.25070 5837 ft 192 kts 208°
2026-04-25 18:07 31.91471 -106.25721 5838 ft 191 kts 208°
2026-04-25 18:08 31.90272 -106.26372 5849 ft 190 kts 210°
2026-04-25 18:08 31.89163 -106.27132 5810 ft 185 kts 228°
2026-04-25 18:08 31.88421 -106.28334 5850 ft 181 kts 236°
2026-04-25 18:08 31.87657 -106.29509 5860 ft 180 kts 234°
2026-04-25 18:09 31.86855 -106.30667 5858 ft 180 kts 233°
2026-04-25 18:09 31.86040 -106.31772 5657 ft 180 kts 232°
2026-04-25 18:09 31.85247 -106.32788 5435 ft 158 kts 231°
2026-04-25 18:09 31.85003 -106.33102 5292 ft 151 kts 232°
2026-04-25 18:10 31.83925 -106.34569 4725 ft 142 kts 236°
2026-04-25 18:10 31.83261 -106.35535 4366 ft 162 kts 237°
2026-04-25 18:10 31.82616 -106.36501 4122 ft 148 kts 237°
2026-04-25 18:10 31.82034 -106.37364 3938 ft 119 kts 232°
2026-04-25 18:11 31.81617 -106.37965 3946 ft 71 kts 229°
2026-04-25 18:11 31.81339 -106.38342 3950 ft 51 kts 230°
2026-04-25 18:11 31.81181 -106.38494 3954 ft 15 kts 158°
2026-04-25 18:11 31.81130 -106.38432 3952 ft 0 kts 131°
2026-04-25 18:12 31.81125 -106.38425 3951 ft 2 kts 132°
2026-04-25 18:12 31.81116 -106.38414 3951 ft 0 kts 132°
2026-04-25 18:13 31.81115 -106.38413 3951 ft 2 kts 132°
2026-04-25 18:13 31.81062 -106.38358 3951 ft 18 kts 141°
2026-04-25 18:13 31.81025 -106.38240 3949 ft 14 kts 53°
2026-04-25 18:14 31.81396 -106.37723 3942 ft 64 kts 49°
2026-04-25 18:14 31.81645 -106.37381 3942 ft 35 kts 50°
2026-04-25 18:14 31.81661 -106.37193 3942 ft 19 kts 72°
2026-04-25 18:14 31.81745 -106.37082 3940 ft 18 kts 46°
2026-04-25 18:15 31.81828 -106.36967 3938 ft 19 kts 52°
2026-04-25 18:15 31.81829 -106.36896 3940 ft 9 kts 131°